Location: ?íhovice
(49.5536°N, 15.1673°E)
Time: 06:45:33
(UTC+00:00)

Daily predictions for brighter satellites

Satellite Brightness Start Highest point End
(mag) Time Altitude Azimuth Time Altitude Azimuth Time Altitude Azimuth
Cosmos 1455 2.5 19:52:37 10° N 19:56:21 51° ENE 20:00:05 10° SSE
Meteor 2-5 Rocket 3.7 19:51:10 10° S 19:56:39 75° E 20:02:14 10° NNE
USA 245 3.5 19:52:10 10° SSE 19:56:51 77° ENE 20:00:35 10° N
SPOT 1/Viking Rocket 4.2 19:52:02 10° S 19:57:04 57° W 20:02:11 10° NNW
Cosmos 1607 4.0 19:51:02 10° SSW 19:57:09 61° ESE 20:03:15 10° NE
NOSS 2-1 (C) 4.0 19:53:26 10° NW 19:57:44 77° NE 20:03:49 10° SE
USA 32 4.2 19:53:52 10° SSE 19:58:58 57° E 20:04:05 10° NNE
USA 267 4.0 19:54:07 10° ENE 19:59:34 28° SE 20:05:00 10° S
Ariane Rocket 3.5 19:55:10 10° S 20:00:12 62° WSW 20:05:18 10° NNW
Cosmos 1954 Rocket 4.1 19:56:22 10° NNW 20:01:42 90° E 20:06:56 10° SSE
NOSS 2-1 (D) 4.0 20:03:43 10° NW 20:08:06 88° NE 20:14:18 10° SE
Cosmos 1980 Rocket 4.0 20:03:49 10° N 20:08:13 22° NE 20:12:35 10° E
Cosmos 1536 Rocket 4.3 20:06:36 10° SSE 20:10:33 36° E 20:14:32 10° NNE
Cosmos 1697 Rocket 3.8 20:06:10 10° NNW 20:11:18 35° NE 20:16:24 10° ESE
Cosmos 2228 4.1 20:07:54 10° N 20:11:40 30° ENE 20:15:17 11° SE
SPOT 5 2.7 20:07:32 10° SSE 20:11:57 73° ENE 20:16:18 10° N
H-2A R/B 3.5 20:08:26 10° N 20:12:34 41° WNW 20:16:45 10° SW
Tiangong 2.9 20:14:27 10° SW 20:16:39 17° S 20:18:23 12° SSE
Cosmos 1975 Rocket 3.7 20:12:24 10° SSW 20:16:49 60° WNW 20:21:13 10° N
CARTOSAT-1 4.2 20:13:47 10° S 20:18:00 53° W 20:22:15 10° NNW
IRAS Rocket 4.4 20:13:38 10° NNE 20:19:16 81° WNW 20:24:50 10° SSW
Cosmos 1703 4.2 20:16:10 11° SSE 20:19:25 31° E 20:22:51 10° NNE
Cosmos 1656 3.8 20:15:55 10° NNW 20:21:23 70° ENE 20:26:30 12° SE
Cosmos 2084 3.1 20:18:17 10° SW 20:22:07 76° SE 20:26:00 10° NE
USA 276 2.3 20:27:21 10° SW 20:30:12 42° SSE 20:33:04 10° E
Spot 2 Rocket 3.6 20:25:59 10° S 20:31:04 76° WSW 20:36:13 10° NNW
ATLAS 2AS CENTAUR R/B 3.0 20:24:53 10° NW 20:31:57 64° SW 20:37:59 13° SSE
Cosmos 1544 Rocket 4.0 20:29:00 10° NNW 20:33:16 60° W 20:37:31 10° S
Meteor 1-24 Rocket 4.0 20:29:07 10° SSW 20:34:22 65° WNW 20:39:48 10° N
USA 234 3.6 20:29:02 10° ESE 20:35:30 66° NNE 20:42:01 10° WNW
Lacrosse 5 2.2 20:31:48 10° WNW 20:36:47 54° SW 20:40:57 15° SSE
Cosmos 1452 Rocket 3.8 20:32:33 10° S 20:37:36 50° ESE 20:42:41 10° NNE
X-37B 1.2 20:37:39 10° SW 20:40:08 28° S 20:41:44 17° ESE
Cosmos 1833 Rocket 3.4 20:36:06 11° SSE 20:40:50 34° ESE 20:45:49 10° NE
Terra 1.9 20:38:02 12° SSE 20:42:25 85° WSW 20:47:13 10° NNW
Cosmos 2184 Rocket 4.0 20:39:58 10° N 20:46:11 87° E 20:51:50 13° S
FALCON 9 DEB 4.1 20:43:16 10° W 20:46:26 46° N 20:49:37 10° ENE
Resurs 01 Rocket 4.2 20:47:02 10° SW 20:49:35 15° W 20:52:10 10° NW
Cosmos 724 4.2 20:47:16 10° SSW 20:53:05 84° SE 20:58:55 10° NE
CZ-4B R/B 4.2 20:53:25 10° NW 20:54:45 13° WNW 20:56:05 10° W
Helios 1A Rocket 3.9 20:51:31 10° S 20:55:22 42° W 20:59:17 10° NNW
Lacrosse 5 rocket 3.1 20:56:50 10° W 20:59:37 19° SW 21:01:56 12° SSW
Cosmos 1271 Rocket 4.4 20:56:59 10° NNW 21:00:31 30° W 21:04:00 10° SSW
Cosmos 2082 Rocket 3.5 21:01:01 16° SE 21:03:45 23° ESE 21:08:06 10° NE
Meteor 2-1 Rocket 4.2 20:58:25 10° N 21:03:56 72° ENE 21:08:05 18° SSE
ERS-1 Rocket 3.9 21:03:41 10° S 21:08:25 42° W 21:13:13 10° NNW
RESURS DK-1 2.4 21:06:23 10° NNW 21:10:31 76° WSW 21:13:07 22° SSE
Cosmos 2058 Rocket 3.9 21:10:59 10° N 21:15:09 40° ENE 21:17:48 20° SE
CZ-2C R/B 4.3 21:11:28 10° N 21:15:59 56° WNW 21:20:25 10° SSW
Cosmos 1892 Rocket 4.0 21:16:25 22° SSE 21:18:57 45° E 21:23:08 10° NNE
ARIANE 5 R/B 3.4 21:18:10 15° S 21:21:35 47° W 21:25:54 10° NNW
Cosmos 1741 Rocket 4.4 21:16:53 10° NNW 21:22:06 57° WSW 21:25:51 19° S
Cosmos 968 Rocket 3.9 21:18:39 10° NNW 21:23:46 55° ENE 21:27:23 19° SE
Cosmos 1825 4.0 21:24:12 16° ESE 21:25:24 18° E 21:27:59 10° NE
Cosmos 2344 4.3 21:19:41 10° NW 21:28:27 90° WSW 21:38:57 15° SE
SL-8 R/B 3.8 21:25:14 10° W 21:29:58 59° SSW 21:33:28 18° ESE
GP-B 3.2 21:26:57 10° N 21:31:22 62° E 21:33:53 25° SSE
ADEOS Rocket 4.0 21:33:32 16° SE 21:39:09 51° ENE 21:46:30 10° N
Cosmos 2181 Rocket 4.4 21:35:23 21° SSE 21:39:11 47° E 21:45:06 10° NNE
ASTEX 1 3.4 21:34:23 10° N 21:39:25 85° E 21:42:45 22° S
Cosmos 1869 4.4 21:36:20 10° N 21:39:50 32° ENE 21:41:42 21° ESE
COSMOS 2406 3.3 21:37:53 19° S 21:42:00 59° ESE 21:47:40 10° NE
USA 267 3.2 21:36:40 10° ENE 21:43:14 80° SE 21:49:48 10° SW
Cosmos 2369 3.7 21:38:39 10° NNW 21:44:26 86° ENE 21:48:09 23° SSE
SL-16 R/B 3.8 21:40:38 10° NNW 21:45:34 29° NE 21:50:30 10° ESE
Cosmos 2228 4.5 21:45:27 10° NNW 21:49:08 29° W 21:52:05 14° SW
Okean 1-7 Rocket 4.3 21:50:04 26° SE 21:52:00 40° E 21:56:13 10° NNE
Cosmos 1633 4.4 21:51:28 16° ESE 21:52:15 17° E 21:54:33 10° NE
Nadezhda 1 Rocket 4.5 21:47:08 11° SSW 21:52:58 56° WNW 21:58:57 10° N
Cosmos 1980 Rocket 2.2 21:47:18 10° NNW 21:53:04 88° ENE 21:56:37 24° SSE
Cosmos 1606 Rocket 4.5 21:50:15 10° NNW 21:54:17 40° W 21:56:56 19° SSW
BREEZE-M DEB (TANK) 4.3 21:42:15 10° SW 21:55:17 50° SSE 21:59:14 10° E
Cosmos 1697 Rocket 3.2 21:50:04 10° NW 21:55:29 49° WSW 21:58:44 23° S
Cosmos 1892 2.6 21:55:58 33° S 21:57:31 71° E 22:01:17 10° NNE
SJ 16-02 3.5 21:55:11 10° N 21:58:27 20° NE 22:01:43 10° E
Cosmos 2084 Rocket 3.2 21:57:02 10° NW 22:00:55 78° SW 22:02:43 32° SSE
Meteor 1-11 4.2 21:57:29 22° S 22:01:16 87° E 22:06:53 10° NNE
USA 276 1.9 22:02:47 10° W 22:05:48 82° N 22:08:49 10° E
In-Cosmos 22 Rocket 4.2 22:06:27 25° S 22:09:43 70° E 22:15:11 10° NNE
X-37B 2.9 22:12:45 10° WSW 22:12:58 11° WSW 22:12:58 11° WSW
Cosmos 1408 2.9 22:15:25 29° SW 22:16:56 53° WNW 22:20:19 10° N
USA 234 3.4 22:14:25 22° SSE 22:18:38 57° SW 22:25:06 10° WNW
Lacrosse 5 4.0 22:17:09 10° W 22:18:47 11° WSW 22:20:08 10° SW
Terra 4.3 22:19:09 10° WSW 22:20:55 12° W 22:22:41 10° WNW
Cosmos 1758 Rocket 4.4 22:20:59 26° SE 22:22:37 36° E 22:26:38 10° NNE
FALCON 9 DEB 3.7 22:19:49 10° WNW 22:23:02 54° NNE 22:26:16 10° E
Cosmos 1833 Rocket 3.6 22:19:12 10° SW 22:24:36 47° NW 22:30:03 10° NNE
Cosmos 2322 Rocket 3.4 22:19:36 10° NNW 22:24:54 38° NE 22:30:11 10° ESE
Cosmos 2333 Rocket 4.4 22:20:48 10° N 22:25:12 22° NE 22:29:34 10° E
Cosmos 1867 3.6 22:22:53 10° NW 22:28:22 71° SW 22:31:17 28° SSE
Cosmos 2278 3.7 22:23:24 10° NNW 22:29:09 83° WSW 22:32:24 27° SSE
SL-8 Rocket 4.4 22:23:50 10° NNW 22:29:56 57° W 22:33:46 23° SSW
ATLAS 5 CENTAUR R/B 2.2 22:30:25 29° SE 22:30:44 29° ESE 22:34:18 10° ENE
Cosmos 1812 Rocket 3.7 22:27:56 10° N 22:32:25 70° ENE 22:34:25 32° SSE
Cosmos 1503 Rocket 4.4 22:27:28 10° NNW 22:32:45 59° ENE 22:36:06 22° SE
ALOS 2 2.7 22:32:45 33° S 22:34:40 68° WSW 22:39:03 10° NNW
Cosmos 1302 Rocket 4.3 22:31:56 17° SW 22:35:52 62° WNW 22:41:03 10° NNE
Cosmos 2218 Rocket 4.4 22:35:47 10° NNW 22:42:01 56° W 22:45:53 24° SSW
Cosmos 2366 rocket 4.5 22:39:40 10° NNW 22:45:46 52° W 22:49:34 23° SSW
Aureole 1 Rocket 4.4 22:39:36 10° NNW 22:46:28 84° WSW 22:51:53 23° SSE
Cosmos 1602 Rocket 3.4 22:45:32 35° S 22:47:18 83° E 22:51:39 10° N
Cosmos 2082 Rocket 2.4 22:42:49 17° SW 22:47:18 69° WNW 22:53:01 10° NNE
H-2A R/B 3.7 22:44:55 10° N 22:49:05 64° WNW 22:51:09 28° SW
Cosmos 1825 3.2 22:58:50 25° SW 23:00:28 38° WNW 23:04:01 10° N
Cosmos 2360 Rocket 3.0 22:59:00 10° NNW 23:04:31 48° NE 23:09:53 10° SE
ERS-2 2.0 23:01:08 10° NNE 23:04:44 81° WNW 23:05:53 41° SSW
Cosmos-2242 3.0 23:02:25 10° NNW 23:06:39 68° W 23:08:16 36° SSW
Cosmos 1953 Rocket 4.3 23:09:48 28° SE 23:11:41 43° E 23:15:54 10° NNE
Cosmos 1606 2.7 23:13:14 10° NNW 23:17:04 70° W 23:18:18 40° SSW
Cosmos 2058 3.0 23:16:21 36° S 23:17:57 70° E 23:22:08 10° NNE
Cosmos 1934 Rocket 4.0 23:12:31 10° N 23:18:37 77° E 23:22:23 25° SSE
BREEZE-M DEB (TANK) 4.3 23:14:54 10° W 23:18:53 73° SSW 23:36:59 10° ESE
ADEOS Rocket 4.1 23:20:28 22° SSW 23:24:43 43° W 23:31:56 10° NNW
Cosmos 1825 Rocket 3.4 23:22:58 35° S 23:24:45 88° E 23:29:06 10° N
USA 267 4.0 23:19:45 10° ENE 23:26:06 55° NNW 23:32:26 10° W
Cosmos 1633 3.6 23:25:15 26° WSW 23:26:28 35° WNW 23:29:42 10° N
CRYOSAT 2 4.3 23:25:28 31° S 23:27:51 83° W 23:32:47 10° N
SL-16 R/B 2.3 23:24:29 10° NW 23:30:07 63° WSW 23:33:07 27° S
SL-19 R/B 4.2 23:31:17 35° SSE 23:32:44 79° ENE 23:36:50 10° NNW
Cosmos 972 Rocket 4.2 23:30:04 10° NNW 23:35:06 72° ENE 23:38:53 20° SSE
Cosmos 1980 Rocket 4.0 23:32:44 10° WNW 23:36:16 17° W 23:38:21 14° WSW
SJ 16-02 1.4 23:33:02 10° NNW 23:37:26 61° WSW 23:39:13 33° S
Cosmos 1842 Rocket 4.1 23:35:55 10° N 23:40:21 54° ENE 23:43:02 22° SSE
Gbstr 26 Del rocket 4.4 23:39:33 24° SSE 23:40:28 25° SE 23:44:52 10° E
USA 276 1.8 23:38:31 10° W 23:41:31 76° SSW 23:44:31 10° ESE
Meteor 2-2 Rocket 4.4 23:36:28 10° NNW 23:42:26 69° W 23:45:55 26° S
Cosmos 2219 Rocket 3.2 23:39:27 10° NNW 23:44:54 44° NE 23:50:19 10° SE
CZ-2D R/B 3.6 23:45:42 10° NE 23:50:03 26° E 23:53:35 14° SE
Cosmos 1340 Rocket 2.7 23:48:44 36° SSW 23:50:16 83° WNW 23:54:14 10° N
